Location: Peebles
(55.6412°N, 3.1714°W)
Time: 10:24:43
(UTC+01:00)

Cosmos 2278 Rocket - Pass Details

Date: 26 September 2021
Orbit: 840 x 847 km, 71.0° (Epoch: 21 October)

Event Time Altitude Azimuth Distance (km) Brightness Sun altitude
Rises 20:12:03 0° 245° (WSW) 3,403 6.3 -10.8°
Reaches altitude 10° 20:14:41 10° 254° (WSW) 2,472 5.6 -11.2°
Maximum altitude 20:19:55 37° 321° (NW) 1,302 3.7 -11.9°
Drops below altitude 10° 20:25:12 10° 28° (NNE) 2,483 4.5 -12.6°
Sets 20:27:51 0° 37° (NE) 3,421 5.2 -13.0°
